www.pogodaiklimat.ru

Погода и климат >> Архив погоды >> Сирия >> Даръа


ПОГОДА в Даръа

  • Прогноз погоды в Даръа
  • Монитор погоды в Даръа

АРХИВ ПОГОДЫ в Даръа

Время (UTC), дата Ветер
(напр.,м/с)
 
Видим.   Явления Облачность Т
(С)
Тd
(С)
f
(%)
Тe
(С)
Тes
(С)
Комфортность P
(гПа)
Po
(гПа)
Тmin
(С)
Tmax
(С)
R
(мм)
R24
(мм)
S
(см)
21 12.07 штиль 0 н/о 3/3 1000 м
[]
+26.4 +17.4 58 +31 +31 душно 997.0 859.8
00 13.07 штиль 0 10 км гроза, ливневой дождь 8/5 1000 м
[Sc]
+23.7 +18.0 70 +28 +28 душно 998.3 859.8
03 13.07 СЗ 1 20 км ясно +28.1 +20.4 63 +35 +35 очень
душно
999.2 939.5
21 13.07 штиль 0 н/о 5/3 1000 м
[Sc]
+30.2 +19.5 53 +36 +36 очень
душно
997.2 859.8
09 14.07 В 2 20 км 3/3 1000 м
[Sc]
+35.9 +19.6 39 +41 +56 опасность
перегрева
995.6 937.6
12 14.07 штиль 0 50 км позёмок 6/1 600 м
[Sc]
+41.4 +17.2 25 +44 +57 опасность
перегрева
994.1 859.8
18 14.07 штиль 00 4700 м 4/0
[]
+29.8 +18.9 52 +35 +35 очень
душно
996.7 937.5
21 14.07 штиль 00 6000 м 5/0 2000 м
[]
+25.4 +15.5 54 +28 +28 жарко 998.4 859.8
00 15.07 ЮЗ 1 10 км ясно +21.7 +15.7 69 +25 +25 комфорт 999.4 859.8
03 15.07 штиль 00 2500 м 4/4 1500 м
[]
+17.2 +7.4 52 +17 +17 794.6
06 15.07 З 90 20 км 5/5 600 м
[]
+33.6 +20.2 45 +40 +40 очень
душно
998.1 939.5
09 15.07 В 2 50 км 3/3 1500 м
[]
+40.7 +12.9 19 +40 +55 опасность
солнечного
удара
996.0 859.8
06 16.07 ЮВ 1 50 км ясно +31.7 +21.0 53 +39 +50 очень
душно
999.2 859.8
09 16.07 З 90 20 км 5/5 600 м
[]
+33.1 +22.0 52 +42 +42 опасность
перегрева
998.1 939.4
12 16.07 З 1 1900 м 5/5 1500 м
[]
+39.7 +15.0 23 +41 +50 опасность
перегрева
996.5 859.8
15 16.07 штиль 00 20 км 4/4 600 м
[]
+32.0 +17.9 43 +36 +38 очень
душно
998.5 939.6 +39.9
06 17.07 н/о +31.4 +21.4 55 +39 +52 опасность
солнечного
удара
1001.2 859.8
09 17.07 н/о +33.6 +21.7 50 +42 +70 опасность
перегрева
999.3 859.8
15 17.07 н/о +28.1 +19.3 59 +34 +37 очень
душно
844.4
18 17.07 н/о +28.3 +16.9 50 +32 +32 душно 1000.9 859.8
21 17.07 н/о +22.2 +16.6 71 +27 +27 душно 1001.4 859.8
03 18.07 штиль 0 50 км 4/1 <50 м
[Cb calv Ci fib]
+10.3 +6.5 77 +10 +10 1000.0
06 18.07 С 1 50 км ясно +36.0 +20.8 41 998.3 12
09 18.07 З 1 4700 м 5/0 2000 м
[]
+33.5 +24.3 59 +46 +64 опасность
перегрева
999.2 859.8
12 18.07 ЮЗ 2 50 км 3/3 1500 м
[]
+36.6 +21.2 41 +44 +55 опасность
перегрева
997.9 859.8
15 18.07 З 4 20 км 4/0 <50 м
[Cs]
+24.0 +9.5 40
18 18.07 З 6 20 км ясно +30.0 +9.8 29 +30 +30 жарко 1002.6 943.1 +37.4
21 18.07 штиль 00 1900 м 5/5 1500 м
[]
+23.4 +17.4 69 +29 +29 душно 1000.7 859.8
00 19.07 штиль 00 3600 м 5/0 2000 м
[]
+20.0 +13.0 64 +22 +22 комфорт 1004.6 914.1
09 19.07 ЮВ 2 50 км ясно +34.3 +22.2 49 +43 +64 опасность
перегрева
999.6 859.8
15 19.07 ЮВ 1 50 км ясно +35.5 +8.9 20 +34 +37 очень
жарко
996.2 938.1

 

Местоположение метеостанции Даръа (Сирия): широта 32.60 долгота 36.10 высота над уровнем моря 543 м.

В архиве по умолчанию представлена погода в Даръа за последнюю неделю. Архивные данные за месяц целиком и за предыдущие месяцы, начиная с января 2011 года, Вы можете получить, выбрав интересующий диапазон дат из раскрывающегося списка и нажав кнопку "Ввод!".


*Определитесь, кто Вы:
робот инопланетянин человек

Внимание! Время в таблицах - всемирное. Для получения местного времени необходимо прибавить поправку, которая равна 2 ч.

Смотрите также архив погоды в соседних городах и на ближайших метеорологических станциях:

Погода в Ирбиде (Иордания) (24 км)
Погода в Эль-Мафраке (Иордания) (29 км)
Погода в Цфате (Израиль) (70 км)
Погода в Аммане (Иордания) (70 км)
Погода в Капернауме (Израиль) (77 км)
Погода в Афеке (Израиль) (97 км)
Погода в Аэропорту Королева Алия (Иордания) (99 км)
Погода в Дамаске (Сирия) (99 км)
Погода в Аэропорту Принц Хассан (Иордания) (106 км)
Погода в Рош-ха-Никра (Израиль) (107 км)

Пояснения к столбцам:

Ветер - указаны скорость ветра в м/с - средняя за 10 мин, порывы в срок и между сроками (в фигурных скобках) и направление, откуда дует ветер: С - северный, СВ - северо-восточный, В - восточный, ЮВ - юго-восточный, Ю - южный, ЮЗ - юго-западный, З - западный, СЗ - северо-западный.
Видимость - горизонтальная дальность видимости в метрах или километрах. При видимости от 1 до 10 км при отсутствии осадков обычно наблюдается дымка, при ухудшении видимости до 1 км и менее - туман. В сухую погоду видимость может ухудшаться дымом, пылью или мглою.
Явления - указаны атмосферные явления, наблюдавшиеся в срок или в последний час перед сроком; фигурными скобками обозначены явления, наблюдавшиеся между сроками (за 1-3 часа до срока); квадратными скобками обозначены град или гололедные отложения с указанием их диаметра в мм.
Облачность - указаны через наклонную черту общая и нижняя облачность в баллах и высота нижней границы облаков в метрах; квадратными скобками обозначены формы облаков: Ci - перистые, Cs - перисто-слоистые, Cc - перисто-кучевые, Ac - высококучевые, As - высокослоистые, Sc - слоисто-кучевые, Ns - слоисто-дождевые, Cu - кучевые, Cb - кучево-дождевые. Подробнее классификацию облаков см. в Атласе облаков (PDF).
T - Температура воздуха - температура, измеренная на высоте 2 м над землей.
Td - Температура точки росы - температура, при понижении до которой содержащийся в воздухе водяной пар достигнет насыщения.
f - Относительная влажность воздуха - влажноcть воздуха, измеренная на высоте 2 м над землей.
Te - Эффективная температура - температура, которую ощущает одетый по сезону человек в тени. Характеристика душности погоды. При расчете учитывается влияние влажности воздуха и скорости ветра на теплоощущения человека.
Tes - Эффективная температура на солнце - температура, которую ощущает человек, с поправкой на солнечный нагрев. Характеристика знойности погоды. Зависит от высоты солнца над горизонтом, облачности и скорости ветра. Ночью, в пасмурную погоду, а также при ветре 12 м/с и более поправка равна нулю.
P - Атмосферное давление - приведенное к уровню моря атмосферное давление.
Po - Атмосферное давление - измеренное на уровне метеостанции атмосферное давление.
Tmin - Минимальная температура - минимум температуры воздуха на высоте 2 м над землей.
Tmax - Максимальная температура - максимум температуры воздуха на высоте 2 м над землей.
R - Количество осадков - Количество выпавших осадков за период времени, мм. При наведении курсора мыши на число - период времени, за который выпало указанное количество осадков.
R24 - Количество осадков - Количество выпавших осадков за 24 часа, мм.
S - Снежный покров - Высота снежного покрова, см. При наведении курсора мыши на число - состояние снежного покрова и степень покрытия местности в баллах.